Location: La Brionne
(46.1728°N, 1.7849°E)
Time: 06:01:23
(UTC+00:00)

STARS - Visible Passes

Search period start: 19 April 2024 00:00
Search period end: 29 April 2024 00:00
Orbit: 608 x 620 km, 98.1° (Epoch: 18 April)

Date Brightness Start Highest point End Pass type
(mag) Time Alt. Az. Time Alt. Az. Time Alt. Az.
19 Apr ? 00:57:15 10° N 00:59:25 22° NNW 00:59:25 22° NNW visible
19 Apr ? 23:36:25 10° NNE 23:38:07 22° NE 23:38:07 22° NE visible
20 Apr ? 01:13:06 10° NNW 01:15:10 18° NW 01:15:10 18° NW visible
20 Apr ? 23:51:47 10° NNE 23:53:52 27° NNE 23:53:52 27° NNE visible
21 Apr ? 01:29:08 10° NNW 01:30:55 14° NW 01:30:55 14° NW visible
22 Apr ? 00:07:14 10° NNE 00:09:35 32° NNE 00:09:35 32° NNE visible
22 Apr ? 01:45:47 10° NW 01:46:38 11° NW 01:46:38 11° NW visible
22 Apr ? 22:48:14 10° NE 22:48:15 10° ENE 22:48:15 10° ENE visible
23 Apr ? 00:22:44 10° N 00:25:18 34° N 00:25:18 34° N visible
23 Apr ? 23:02:59 10° NE 23:03:57 14° NE 23:03:57 14° NE visible
24 Apr ? 00:38:18 10° N 00:40:59 31° NNW 00:40:59 31° NNW visible
24 Apr ? 23:17:59 10° NE 23:19:37 19° NE 23:19:37 19° NE visible
25 Apr ? 00:53:56 10° N 00:56:40 26° NW 00:56:40 26° NW visible
25 Apr ? 23:33:09 10° NNE 23:35:17 25° NE 23:35:17 25° NE visible
26 Apr ? 01:09:39 10° NNW 01:12:19 21° NW 01:12:19 21° NW visible
26 Apr ? 23:48:24 10° NNE 23:50:55 33° NE 23:50:55 33° NE visible
27 Apr ? 01:25:33 10° NNW 01:27:58 16° WNW 01:27:58 16° WNW visible
28 Apr ? 00:03:44 10° NNE 00:06:33 40° NNE 00:06:33 40° NNE visible
28 Apr ? 01:41:49 10° NW 01:43:21 12° WNW 01:43:35 12° WNW visible
28 Apr ? 22:44:58 10° ENE 22:45:07 10° ENE 22:45:07 10° ENE visible
